Location: Newark
(7.0858°N, 171.3717°E)
Time: 20:05:07
(UTC+00:00)

Vanguard 2 - Pass Details

Date: 02 December 2020
Orbit: 553 x 2937 km, 32.9° (Epoch: 17 January)

Event Time Altitude Azimuth Distance (km) Brightness Sun altitude
Rises 07:43:58 0° 254° (WSW) 3,919 12.7 -21.1°
Reaches altitude 10° 07:48:08 10° 229° (SW) 3,398 11.8 -22.1°
Maximum altitude 07:52:28 14° 199° (SSW) 3,508 11.3 -23.1°
Drops below altitude 10° 07:57:50 10° 171° (S) 4,359 11.5 -24.3°
Sets 08:04:51 0° 150° (SSE) 5,940 12.0 -26.0°
